Temperature
19 19 19 20 22 23 23 23 24 23 23 22 22 23 23 22 22 20 17 17 17 17 17 17 17 17 17 17 17 17 17 17 17 17 17 17 16 16 16 16 16 16 17 17 17 17 17 17 17
19 20 19 21 23 23 22 23 23 23 23 22 22 22 22 20 19 18 17 17 17 17 17 16 17 17 17 17 17 17 17 17 16 16 16 16 16 16 16 16 16 16 16 16 16 17 17 17 17
19 20 20 23 23 23 23 23 23 23 22 22 22 21 21 20 19 18 17 17 17 17 16 17 17 17 17 17 17 17 16 16 16 16 16 16 16 16 16 16 16 16 16 16 16 16 16 16 17
19 20 22 23 23 23 23 23 23 23 22 22 22 21 20 19 19 18 17 17 17 17 16 16 17 17 17 17 16 16 16 16 16 16 16 16 15 15 15 15 15 15 16 16 16 16 16 16 16
19 22 23 23 23 23 23 23 23 23 23 22 22 21 19 18 18 18 17 17 17 17 16 16 17 16 16 16 16 16 16 16 16 16 16 15 15 15 15 15 15 15 15 15 16 16 16 16 16
21 23 23 23 23 23 23 22 23 23 23 22 22 21 19 18 18 17 17 17 17 17 16 16 17 16 16 16 16 16 16 16 16 16 15 15 15 15 15 15 15 15 15 15 15 15 16 16 16
22 23 23 23 22 22 22 22 23 23 23 22 22 21 19 18 18 17 17 17 17 17 17 17 16 16 16 16 16 16 16 16 16 15 15 15 15 15 15 15 15 15 15 15 15 15 15 16 16
20 23 23 23 22 22 22 22 22 23 22 22 22 22 20 18 18 17 17 17 17 17 17 17 16 16 16 16 16 16 16 16 16 15 15 15 15 15 15 15 15 15 15 15 15 15 15 15 16
20 23 22 23 22 22 22 22 22 22 22 21 21 21 20 18 18 17 17 17 17 17 17 17 16 16 16 16 16 16 16 16 15 15 15 15 15 15 15 15 15 15 15 15 15 15 15 15 15
21 22 22 23 23 23 23 23 22 22 22 21 21 20 19 18 18 18 18 18 18 18 17 17 17 16 16 16 16 16 16 15 15 15 15 15 15 14 14 15 15 15 15 15 15 15 15 15 15
22 22 22 22 22 22 22 22 22 23 23 22 21 20 19 19 19 19 19 19 18 18 17 17 17 17 17 16 16 16 16 15 15 15 15 15 15 15 15 14 15 14 14 15 15 15 15 15 15
21 21 22 22 21 21 22 22 22 22 22 22 21 20 20 20 20 19 19 19 18 18 18 17 17 17 17 17 16 16 16 15 15 15 15 15 15 15 14 14 14 14 14 14 15 15 15 15 16
22 21 21 21 21 21 22 22 22 21 21 21 20 20 20 20 20 20 19 19 19 18 18 18 17 17 17 16 16 16 16 16 15 15 15 14 15 15 14 14 14 14 14 14 14 15 15 15 15
21 21 21 21 21 21 22 22 22 21 21 21 20 20 20 20 20 20 19 19 19 18 18 18 17 17 17 17 16 16 16 15 15 15 15 14 14 14 14 15 14 14 14 14 15 15 15 15 15
21 22 21 21 21 21 22 22 22 21 21 21 21 21 20 20 20 20 20 20 19 19 18 18 17 17 17 17 16 16 16 16 15 15 15 15 14 14 14 14 14 14 14 14 15 15 15 15 15
22 21 21 21 22 21 22 21 22 21 21 22 22 21 21 20 20 20 20 20 19 19 18 18 17 17 17 17 16 16 16 15 15 15 15 14 14 14 14 14 14 14 14 14 14 15 15 15 15
21 21 21 21 21 22 22 21 22 21 22 22 22 21 21 21 21 20 20 20 19 19 18 18 17 17 17 17 16 16 16 15 15 15 14 14 14 14 14 14 14 14 14 14 14 14 15 15 15
21 22 22 21 21 22 22 22 22 21 22 22 22 22 22 22 21 20 20 19 19 19 18 18 18 17 17 17 16 16 15 15 15 15 14 14 14 14 14 14 14 14 14 14 14 14 14 14 15
21 22 21 21 21 22 22 22 22 22 22 22 22 22 22 22 21 20 19 19 19 19 18 18 18 17 17 17 16 16 15 15 15 15 15 15 14 14 14 14 14 14 14 14 14 14 14 14 15
21 21 21 21 21 22 22 22 22 22 22 22 22 22 22 22 21 20 19 19 19 19 18 18 18 17 17 17 16 16 16 15 15 15 15 15 15 14 14 14 14 14 14 14 14 14 14 14 14
21 21 21 21 21 22 22 22 22 22 22 21 21 22 22 21 21 20 19 19 19 19 18 18 18 17 17 17 16 16 16 15 15 15 15 15 15 15 15 14 14 14 14 14 14 14 14 14 14
21 21 21 21 21 21 22 22 23 23 22 22 22 21 21 21 20 20 19 19 19 19 18 18 18 17 17 17 16 16 16 16 15 15 15 15 15 15 15 14 14 14 14 14 14 14 14 14 14
20 21 21 21 21 22 22 23 23 23 23 23 23 22 21 21 20 20 19 19 19 19 19 18 18 18 17 17 17 16 16 16 15 15 15 15 15 15 14 14 14 14 14 14 14 14 14 14 14
20 21 20 21 21 21 22 23 23 24 24 24 23 22 21 20 20 19 19 19 19 19 19 18 18 18 18 17 17 16 16 16 15 15 15 15 15 15 14 14 14 14 14 14 14 14 14 14 14
21 21 20 20 20 21 23 23 24 25 25 24 24 22 21 20 20 19 19 19 19 19 19 18 18 18 17 17 17 16 16 16 15 15 15 15 15 14 14 14 14 14 14 14 14 14 13 13 13
21 21 21 20 21 22 22 23 24 24 23 23 23 22 21 20 20 19 19 19 19 19 18 18 18 18 17 17 17 16 16 16 16 15 15 15 15 14 14 14 14 14 14 14 14 14 13 13 13
20 21 22 22 22 22 23 24 24 23 23 22 22 21 21 20 19 19 18 18 19 18 18 18 18 17 17 17 17 16 16 16 16 15 15 15 15 15 14 14 14 14 14 14 13 13 13 13 13
21 22 21 22 22 22 23 24 24 23 23 23 22 21 21 20 19 18 18 18 18 18 18 18 18 17 17 17 16 16 16 16 16 15 15 15 15 14 14 14 14 14 14 14 13 13 13 13 13
21 21 22 22 23 23 23 24 25 25 25 24 23 22 21 20 19 18 18 18 18 18 18 18 17 17 17 17 16 16 16 16 15 15 15 15 14 14 14 14 14 14 14 13 13 13 13 13 13
22 22 22 22 22 23 24 25 25 25 24 24 23 22 21 20 19 18 18 18 18 18 18 18 17 17 17 16 16 16 16 16 15 15 15 14 14 14 14 14 13 13 13 13 13 13 13 13 13
Wind_Speed
3 2 2 2 2 2 4 3 4 4 4 5 6 5 7 8 6 7 6 7 8 8 9 10 10 11 11 11 12 12 11 11 11 10 10 10 9 9 9 9 9 8 8 7 7 6 6 6 6
1 1 2 2 2 3 4 3 5 5 6 6 6 7 8 8 8 8 7 8 8 8 9 11 11 12 12 12 12 12 11 11 11 10 10 10 9 9 9 9 8 8 8 8 7 7 6 6 6
1 2 2 1 1 3 5 4 6 7 5 4 5 6 6 7 7 6 9 10 9 10 10 12 11 12 12 12 12 12 12 11 11 10 10 10 9 9 9 8 8 8 8 8 7 7 6 6 5
1 2 2 2 5 4 4 6 6 6 5 5 7 8 7 7 6 10 12 11 11 10 11 12 11 12 12 12 12 11 11 11 10 10 9 9 9 8 8 8 8 8 8 7 7 7 6 5 5
2 2 3 4 5 5 4 4 4 4 4 6 8 10 9 8 12 14 12 10 10 10 11 13 12 12 12 12 11 11 10 10 9 9 9 9 8 8 8 8 8 8 8 7 7 7 6 6 5
1 2 4 5 6 6 4 4 5 7 9 10 10 11 9 10 12 12 11 10 10 10 11 12 12 11 11 10 10 10 10 10 9 9 9 8 8 8 8 8 8 8 8 8 7 7 7 6 5
1 1 3 6 7 6 4 4 5 7 9 8 8 10 9 11 11 10 10 9 9 9 9 9 10 10 10 9 10 10 10 9 9 9 8 8 8 8 8 8 8 8 9 8 8 8 7 6 6
1 1 4 5 7 6 5 5 5 7 9 8 6 9 11 13 11 10 10 9 8 8 8 8 8 7 8 9 10 9 8 8 8 8 8 6 4 5 5 6 9 8 9 9 8 7 6 5 5
2 2 4 5 5 6 7 7 6 6 9 7 7 11 15 16 13 11 10 9 8 7 7 7 7 7 6 6 7 6 6 6 4 5 5 3 6 7 5 10 8 8 8 8 8 7 5 3 1
1 2 4 3 4 7 8 8 7 8 10 12 14 15 16 14 13 11 10 9 8 7 7 6 6 5 5 5 5 4 5 6 6 6 6 6 6 6 6 5 6 6 5 3 6 5 4 5 1
1 3 4 5 6 7 8 7 6 9 10 13 17 18 16 14 12 10 9 9 8 7 6 5 5 5 5 4 5 5 5 5 6 6 6 5 6 5 6 5 4 5 5 6 4 4 4 4 3
3 4 4 6 6 7 7 8 7 8 10 14 16 17 15 14 12 10 9 8 7 7 6 5 4 5 5 5 5 4 5 5 6 6 7 6 5 5 6 5 6 6 5 6 5 4 5 4 4
4 5 5 7 7 8 9 9 10 11 12 15 16 15 14 12 11 9 8 8 7 7 6 5 4 5 5 5 4 5 5 6 6 6 6 7 6 6 5 5 6 6 6 5 5 5 5 5 5
5 7 7 8 7 7 10 10 9 11 13 14 14 13 12 10 9 9 8 8 8 7 6 6 5 4 4 4 4 5 5 5 6 6 7 7 7 6 5 5 5 6 6 6 5 6 4 4 4
7 9 8 6 6 6 9 9 10 11 13 13 13 12 11 9 8 8 8 7 7 7 6 6 4 4 4 4 5 5 5 6 6 6 7 8 7 7 6 6 6 6 7 6 6 6 5 4 4
6 7 7 5 5 5 6 10 10 11 13 13 12 11 9 8 8 7 7 7 7 6 6 6 4 5 5 4 4 4 5 6 6 6 7 8 8 8 6 6 6 7 7 6 5 5 4 4 5
5 7 8 7 3 4 4 8 9 10 11 11 11 10 9 9 8 7 7 7 7 6 7 6 6 5 5 5 4 4 5 5 6 6 7 8 8 8 7 6 6 7 6 6 6 5 5 5 5
8 8 8 7 5 6 6 8 9 9 10 10 10 10 9 9 8 8 7 7 7 6 7 7 6 6 6 4 4 4 4 4 5 6 7 8 7 8 7 6 7 7 6 6 6 6 5 4 4
6 7 8 6 4 6 7 8 9 9 8 9 9 9 9 8 8 8 8 8 7 7 7 7 7 6 5 4 3 3 4 4 4 5 6 6 7 7 7 6 7 7 7 7 7 6 6 6 4
7 8 7 6 5 4 7 7 7 7 7 7 8 9 9 9 9 9 9 8 8 8 7 7 6 6 5 3 3 3 3 3 4 4 5 6 7 7 7 7 6 6 6 7 8 7 5 5 5
7 8 8 7 6 5 6 6 7 7 6 6 6 7 8 9 10 10 9 9 8 8 7 7 7 6 5 5 4 3 3 3 3 4 4 5 6 7 7 8 7 7 7 7 8 7 7 6 6
6 6 7 7 7 5 6 5 8 10 9 9 9 9 9 9 9 10 9 9 8 8 7 8 7 7 6 5 4 4 3 3 4 3 3 4 5 6 7 7 7 7 7 7 7 8 6 6 5
4 6 6 5 5 4 6 5 7 11 11 12 11 10 10 10 10 10 9 9 8 8 8 7 8 7 6 5 5 3 3 3 3 3 4 4 5 6 6 6 7 7 7 7 8 7 8 6 7
8 7 5 3 4 6 7 6 7 10 12 12 12 12 11 10 10 9 9 8 8 8 8 8 8 7 6 5 5 4 4 3 3 3 3 3 3 4 6 5 6 6 6 7 7 7 8 7 7
7 8 5 5 5 5 6 6 5 7 9 11 12 13 12 11 11 10 10 10 10 10 9 9 9 8 7 6 5 4 4 3 3 3 3 3 3 4 5 4 5 5 6 6 6 6 7 7 7
10 8 5 5 6 5 6 7 4 5 6 8 10 11 12 12 11 11 11 11 10 11 10 10 9 8 7 6 5 5 4 2 3 3 3 3 3 4 4 4 4 5 5 5 6 5 6 6 6
9 8 4 2 4 4 6 5 4 6 8 10 12 13 13 12 12 11 11 11 11 11 10 10 10 9 8 7 6 5 4 3 3 3 3 3 3 3 4 4 4 4 5 5 5 5 6 6 6
5 6 5 5 5 5 6 7 6 11 13 13 14 15 14 13 13 12 11 11 11 10 10 10 9 9 9 7 6 5 4 4 3 3 3 3 3 3 3 3 3 4 4 5 5 5 5 6 6
8 7 5 5 4 4 4 4 4 8 13 15 15 15 15 15 14 13 12 11 11 11 10 10 9 9 8 7 7 6 5 4 4 3 3 2 3 3 3 3 3 4 4 4 5 5 5 6 6
8 9 9 6 5 4 4 2 4 5 9 13 14 14 14 14 14 13 12 12 11 11 11 10 10 9 8 7 7 6 6 5 4 4 3 3 3 3 3 4 4 4 4 4 5 5 5 5 6
Wind_Direction
246 260 250 230 221 122 96 93 107 109 90 76 68 76 76 53 50 87 99 100 103 102 102 106 100 98 94 91 88 87 86 83 80 76 73 68 64 60 56 51 47 45 41 37 33 28 29 29 27
261 244 241 235 211 129 102 111 109 95 111 109 83 79 80 73 74 95 107 107 108 101 98 94 99 96 92 88 87 86 85 81 76 73 68 64 59 56 52 47 43 40 36 33 31 27 26 25 24
220 244 259 220 131 111 118 114 109 101 104 107 97 70 66 85 92 97 110 116 107 98 94 95 96 93 91 90 87 83 79 75 72 69 63 59 56 52 48 43 40 36 31 29 26 21 16 11 9
234 218 217 145 107 90 114 125 129 124 101 91 106 88 80 76 92 111 117 114 107 100 96 96 94 93 91 87 83 79 74 70 66 60 56 52 49 47 44 40 37 31 27 26 23 16 11 7 5
233 231 166 134 112 109 110 120 138 129 111 106 106 102 93 88 106 114 116 113 107 102 98 97 94 92 90 86 81 76 70 64 58 52 49 45 42 40 37 35 31 26 21 20 17 15 15 12 7
216 215 168 144 124 116 109 118 131 115 113 114 113 109 100 112 116 115 113 110 105 102 101 102 98 90 86 82 77 70 64 57 54 50 46 40 38 37 33 28 24 21 19 18 17 15 12 11 11
246 179 145 135 132 128 118 117 130 124 120 117 122 113 120 124 116 118 116 110 105 103 102 102 106 106 99 82 69 63 58 54 51 47 45 43 41 38 32 27 25 24 21 21 19 16 15 20 20
299 178 142 139 140 125 125 119 109 118 112 115 122 125 135 133 129 125 118 114 111 108 106 103 100 96 93 91 77 63 57 52 49 50 45 40 55 57 36 31 36 25 22 20 16 13 14 16 21
255 198 154 138 138 126 134 128 106 114 119 111 102 112 126 131 135 131 128 124 118 113 109 105 101 95 85 78 76 74 73 54 53 69 60 10 26 28 33 38 30 25 20 18 15 8 359 330 91
241 152 108 100 116 128 133 124 124 128 123 117 114 116 127 136 140 137 135 130 126 121 115 109 103 100 90 74 73 59 54 50 41 35 32 29 33 25 21 71 48 30 8 11 20 338 289 282 355
78 94 108 107 107 123 126 115 121 133 127 132 133 135 138 141 140 137 132 125 120 120 116 108 105 97 85 82 68 56 51 49 46 38 36 25 23 22 22 18 31 20 359 10 9 331 4 358 8
110 88 106 115 114 117 120 116 113 110 112 126 131 136 141 145 141 138 132 124 125 121 114 110 105 102 93 81 73 61 53 47 44 38 31 27 26 19 25 20 17 13 19 10 3 2 14 6 10
127 118 106 112 109 113 118 117 112 108 113 124 133 141 145 144 140 136 131 131 128 123 120 109 103 95 91 84 72 66 58 43 55 45 36 32 26 24 24 27 18 16 14 12 5 7 18 14 22
124 122 120 119 113 118 125 124 118 122 130 134 142 146 147 146 144 141 142 138 133 129 119 114 112 104 102 98 86 68 63 66 53 46 40 34 31 26 17 27 25 19 12 9 5 20 13 22 29
134 129 122 121 121 127 135 127 126 138 143 144 149 149 150 153 154 150 142 138 133 130 124 119 114 113 101 88 80 76 70 63 56 48 38 37 33 26 25 24 28 20 13 13 13 21 19 32 40
147 151 144 128 122 145 159 138 137 153 152 151 153 151 155 156 157 150 147 141 136 133 127 123 125 121 108 97 89 85 73 62 56 50 41 36 36 33 31 27 28 22 19 19 19 16 26 38 40
169 169 151 135 125 150 155 143 150 162 160 156 158 156 160 159 157 150 152 146 139 133 131 128 126 124 116 108 99 87 81 67 56 50 44 37 37 33 39 31 24 26 26 25 22 25 19 36 37
167 165 152 143 147 159 153 148 152 164 166 162 161 162 165 161 156 152 151 146 143 139 135 131 131 130 124 121 111 100 84 74 64 54 46 36 34 32 33 36 30 26 31 28 29 32 32 28 25
147 157 146 130 148 160 150 149 158 167 173 172 171 169 164 157 149 147 150 152 153 150 145 141 143 139 136 127 117 104 92 80 70 58 48 39 34 31 33 28 30 24 31 28 28 26 39 36 19
151 151 144 126 137 154 147 152 162 175 180 181 180 174 166 160 153 151 156 156 158 155 153 150 147 144 137 121 108 102 93 82 72 65 58 40 36 32 30 31 33 34 33 33 31 29 26 37 27
164 170 158 143 137 151 155 164 179 182 186 187 192 188 176 171 165 160 160 157 159 158 159 155 151 146 139 132 121 122 116 116 97 75 57 40 38 38 34 34 34 33 35 35 29 28 29 30 35
168 175 162 158 170 167 193 177 187 189 192 196 195 191 185 176 170 164 164 161 161 159 160 158 153 145 140 142 136 125 110 92 76 65 64 62 51 45 39 39 38 39 38 37 34 36 31 27 34
145 158 165 174 186 177 199 199 178 184 196 197 193 192 186 179 173 169 168 164 159 156 156 155 148 141 139 136 126 129 108 95 90 80 74 66 63 50 46 42 42 41 40 39 38 34 31 35 34
145 142 137 171 202 202 201 213 187 189 196 190 188 187 183 178 171 166 161 160 156 153 155 155 149 141 140 141 137 127 113 107 98 82 70 69 71 58 53 46 46 44 41 39 37 37 41 35 34
178 164 164 184 201 202 185 221 213 188 192 192 186 183 180 176 172 167 164 164 160 159 159 158 154 149 149 149 143 132 125 121 105 88 78 64 68 61 52 48 46 44 42 39 34 38 37 40 37
193 202 198 191 192 174 190 221 196 170 185 190 185 179 176 174 173 171 169 166 163 162 162 161 159 155 154 153 144 135 129 120 99 83 77 73 65 59 57 53 52 49 43 43 41 36 38 35 39
189 209 245 233 185 191 198 211 210 184 188 185 181 179 179 175 173 170 168 168 165 164 165 164 161 158 157 153 143 136 130 123 110 101 87 77 73 65 60 65 63 59 50 41 40 39 39 36 34
205 188 203 213 195 204 206 214 203 185 191 187 186 184 180 174 172 169 168 168 165 163 163 164 164 160 158 156 148 138 136 130 120 108 92 82 74 66 63 62 68 66 59 52 43 40 35 41 44
178 195 216 222 235 226 205 201 194 196 191 188 189 186 180 176 174 170 168 166 162 161 162 162 163 161 159 160 153 149 143 138 135 118 102 89 77 74 66 62 58 58 56 59 57 44 40 37 40
215 216 213 217 211 239 243 206 137 185 192 192 189 184 180 176 173 169 167 165 165 166 166 165 165 162 160 160 156 152 147 148 143 129 118 103 88 77 70 72 69 64 57 53 53 46 41 38 36
Height
1521 1521 1521 1522 1521 1520 1524 1523 1520 1522 1523 1527 1526 1526 1527 1530 1532 1541 1543 1542 1543 1544 1544 1544 1544 1544 1545 1545 1545 1545 1545 1545 1545 1545 1545 1544 1544 1543 1542 1542 1541 1541 1540 1539 1539 1538 1538 1537 1537
1521 1521 1523 1522 1519 1526 1528 1523 1522 1523 1526 1528 1528 1529 1530 1535 1538 1541 1542 1543 1544 1545 1546 1545 1545 1545 1546 1546 1546 1546 1546 1546 1546 1546 1545 1545 1544 1544 1543 1542 1541 1541 1540 1539 1538 1538 1537 1536 1536
1521 1522 1524 1519 1520 1524 1527 1524 1524 1526 1527 1528 1530 1532 1534 1538 1541 1543 1544 1545 1546 1547 1547 1547 1547 1547 1547 1548 1548 1548 1548 1548 1547 1547 1546 1546 1545 1544 1543 1542 1542 1541 1540 1539 1538 1537 1537 1536 1536
1522 1524 1523 1520 1523 1523 1523 1524 1526 1527 1529 1529 1530 1534 1538 1542 1543 1545 1546 1547 1548 1549 1549 1548 1548 1549 1549 1549 1549 1549 1549 1549 1548 1548 1547 1546 1546 1545 1544 1543 1542 1541 1540 1539 1538 1537 1536 1536 1535
1522 1522 1520 1522 1523 1523 1524 1525 1527 1527 1528 1531 1532 1536 1541 1544 1545 1547 1548 1549 1550 1551 1551 1551 1550 1551 1551 1551 1551 1551 1551 1550 1550 1549 1548 1547 1547 1546 1544 1543 1542 1541 1540 1539 1538 1537 1536 1535 1535
1523 1520 1521 1524 1524 1525 1526 1527 1528 1529 1530 1533 1534 1537 1544 1547 1548 1549 1550 1551 1552 1553 1553 1553 1552 1552 1553 1553 1552 1552 1552 1552 1551 1550 1549 1548 1547 1546 1545 1544 1542 1541 1540 1539 1538 1537 1536 1535 1535
1523 1519 1520 1521 1525 1526 1527 1528 1529 1529 1531 1534 1536 1538 1545 1548 1549 1550 1551 1552 1553 1554 1555 1555 1556 1555 1555 1554 1554 1554 1554 1553 1552 1551 1550 1549 1548 1547 1545 1544 1543 1541 1540 1539 1538 1537 1536 1535 1535
1522 1520 1521 1522 1525 1527 1528 1529 1530 1531 1533 1536 1537 1539 1545 1549 1550 1552 1553 1554 1555 1556 1557 1557 1557 1558 1558 1557 1556 1555 1555 1554 1553 1552 1551 1550 1549 1547 1546 1545 1543 1541 1540 1539 1538 1537 1536 1535 1535
1522 1522 1523 1523 1524 1526 1528 1529 1532 1533 1535 1537 1539 1541 1545 1549 1551 1553 1555 1556 1557 1558 1559 1559 1559 1559 1559 1559 1558 1557 1556 1555 1555 1554 1552 1551 1551 1549 1548 1545 1543 1541 1540 1539 1537 1536 1536 1535 1535
1522 1522 1522 1523 1523 1525 1528 1529 1532 1534 1535 1538 1541 1545 1548 1550 1553 1555 1556 1558 1559 1560 1560 1561 1561 1561 1561 1560 1559 1559 1559 1557 1556 1555 1553 1552 1551 1549 1548 1545 1543 1542 1540 1539 1538 1536 1536 1536 1536
1522 1522 1523 1524 1526 1527 1528 1531 1533 1533 1536 1539 1542 1546 1549 1552 1554 1556 1558 1559 1560 1561 1562 1562 1562 1562 1562 1562 1561 1560 1560 1558 1557 1556 1554 1553 1552 1551 1549 1547 1546 1544 1542 1541 1539 1538 1537 1537 1536
1524 1525 1525 1526 1528 1529 1530 1532 1534 1536 1539 1541 1544 1548 1551 1553 1556 1557 1559 1560 1561 1562 1563 1563 1563 1564 1563 1563 1562 1562 1561 1560 1558 1557 1556 1554 1553 1551 1550 1548 1546 1545 1543 1541 1540 1539 1538 1537 1537
1524 1526 1527 1528 1529 1531 1532 1535 1537 1540 1542 1544 1547 1550 1552 1555 1557 1559 1560 1561 1562 1563 1564 1564 1564 1565 1565 1564 1563 1563 1562 1561 1560 1557 1557 1555 1554 1553 1551 1549 1547 1546 1544 1543 1541 1540 1539 1538 1537
1526 1527 1528 1530 1531 1533 1534 1537 1539 1543 1545 1547 1549 1552 1554 1556 1558 1559 1561 1562 1563 1564 1565 1565 1565 1565 1565 1565 1565 1564 1563 1562 1561 1559 1558 1557 1555 1554 1552 1551 1548 1547 1545 1544 1542 1541 1539 1539 1538
1527 1528 1531 1532 1533 1534 1535 1538 1540 1544 1546 1548 1551 1553 1555 1557 1559 1560 1562 1563 1564 1565 1565 1566 1566 1566 1566 1566 1566 1565 1564 1564 1562 1561 1560 1558 1556 1555 1553 1552 1550 1548 1547 1545 1543 1542 1541 1540 1539
1526 1528 1533 1534 1533 1535 1537 1543 1542 1545 1546 1548 1550 1553 1555 1557 1559 1560 1562 1563 1564 1565 1566 1566 1566 1567 1567 1566 1566 1566 1566 1565 1564 1562 1561 1560 1558 1556 1554 1553 1552 1550 1548 1546 1544 1543 1542 1541 1540
1527 1530 1532 1535 1534 1535 1535 1541 1542 1545 1546 1548 1550 1552 1555 1557 1559 1560 1562 1563 1565 1565 1566 1567 1567 1567 1567 1567 1567 1567 1567 1566 1565 1564 1562 1561 1560 1558 1557 1554 1553 1552 1550 1548 1546 1544 1543 1542 1541
1529 1529 1531 1534 1535 1534 1536 1538 1541 1544 1546 1547 1549 1552 1554 1556 1558 1560 1561 1563 1564 1566 1567 1567 1567 1568 1568 1568 1569 1568 1568 1567 1566 1565 1563 1562 1561 1559 1558 1557 1555 1553 1551 1549 1548 1546 1544 1543 1543
1525 1528 1531 1534 1534 1535 1536 1538 1540 1543 1545 1547 1548 1550 1552 1555 1558 1559 1561 1562 1564 1566 1567 1567 1568 1568 1569 1569 1570 1570 1569 1569 1567 1566 1565 1563 1562 1561 1559 1558 1557 1554 1553 1551 1550 1548 1547 1545 1544
1527 1531 1534 1535 1535 1535 1537 1539 1540 1542 1544 1546 1547 1549 1551 1554 1557 1559 1561 1562 1564 1566 1567 1568 1568 1569 1569 1569 1570 1570 1569 1569 1568 1567 1566 1565 1564 1562 1561 1560 1558 1557 1555 1553 1551 1549 1549 1548 1546
1529 1531 1533 1535 1536 1536 1538 1541 1540 1541 1544 1546 1547 1549 1551 1553 1556 1558 1560 1562 1563 1565 1566 1568 1568 1569 1569 1570 1570 1570 1570 1570 1570 1569 1568 1566 1565 1564 1562 1561 1560 1558 1557 1555 1553 1552 1550 1550 1549
1532 1530 1532 1534 1536 1539 1537 1545 1538 1537 1541 1543 1545 1547 1550 1552 1554 1557 1559 1561 1563 1564 1566 1567 1568 1569 1570 1570 1571 1572 1572 1572 1571 1570 1569 1568 1566 1565 1564 1563 1562 1560 1559 1557 1556 1554 1553 1552 1551
1530 1531 1532 1534 1535 1538 1535 1538 1535 1533 1537 1538 1541 1545 1548 1550 1553 1555 1557 1559 1561 1563 1565 1567 1568 1569 1570 1571 1571 1572 1572 1572 1571 1571 1570 1569 1568 1567 1565 1564 1563 1562 1561 1559 1558 1556 1555 1554 1553
1531 1533 1535 1536 1536 1544 1535 1535 1535 1528 1529 1532 1537 1542 1545 1548 1551 1553 1556 1558 1560 1562 1564 1566 1567 1568 1570 1570 1571 1572 1572 1572 1572 1571 1571 1570 1569 1568 1567 1566 1565 1564 1563 1561 1560 1558 1557 1556 1555
1531 1535 1545 1549 1548 1542 1532 1534 1529 1521 1524 1528 1533 1538 1543 1546 1549 1552 1554 1556 1558 1561 1563 1565 1566 1568 1569 1570 1571 1572 1572 1572 1572 1572 1571 1571 1571 1570 1568 1567 1566 1565 1564 1563 1561 1560 1559 1558 1556
1529 1530 1538 1546 1545 1538 1534 1532 1522 1522 1525 1529 1532 1536 1540 1544 1547 1550 1552 1554 1557 1559 1562 1564 1566 1567 1569 1570 1571 1572 1572 1572 1572 1572 1572 1571 1571 1570 1569 1568 1567 1566 1565 1564 1563 1562 1561 1560 1559
1529 1529 1526 1528 1530 1534 1530 1524 1520 1522 1524 1527 1531 1535 1538 1541 1544 1547 1550 1553 1556 1558 1561 1563 1565 1567 1568 1570 1571 1572 1572 1572 1572 1572 1572 1571 1571 1570 1569 1569 1568 1567 1566 1565 1564 1563 1562 1561 1560
1524 1524 1528 1529 1536 1537 1530 1524 1518 1518 1519 1523 1527 1531 1535 1539 1542 1545 1548 1551 1554 1557 1560 1562 1564 1566 1568 1569 1570 1571 1572 1572 1572 1572 1572 1572 1571 1570 1570 1570 1569 1568 1566 1565 1564 1564 1562 1562 1560
1526 1527 1525 1523 1523 1529 1531 1521 1506 1508 1512 1517 1522 1527 1532 1536 1539 1543 1546 1549 1552 1555 1558 1561 1563 1565 1567 1568 1569 1570 1571 1571 1571 1571 1571 1571 1571 1570 1570 1569 1569 1568 1567 1566 1565 1564 1563 1562 1562
1518 1518 1520 1526 1524 1521 1521 1517 1505 1508 1511 1515 1520 1525 1529 1534 1537 1541 1544 1547 1550 1554 1556 1559 1561 1563 1565 1567 1568 1569 1570 1570 1571 1571 1571 1571 1571 1570 1570 1569 1569 1568 1567 1566 1566 1564 1563 1563 1562